User: anonymous   Login
Location: NJAA Observatory
(40.6819°N, 74.8979°W)
Time: 14:06:29
(UTC-04:00)
Language:

Cosmos 1461 - Orbit

View from above orbital plane
View from above orbital plane
View from above satellite
View from above satellite

Ground track
Ground track

The orbit data is extracted from the following two-line orbital elements,

1 14064U 83044A   15089.37976150  .00005096  00000-0  47496-3 0  9998
2 14064 065.0027 266.7518 0108361 356.0351 003.9891 14.90939975602480
Epoch (UTC): 30 March 2015 09:06:51
Eccentricity: 0.0108361
inclination: 65.0027°
perigee height: 519 km
apogee height: 670 km
right ascension of ascending node: 266.7518°
argument of perigee: 356.0351°
revolutions per day: 14.90939975
mean anomaly at epoch: 3.9891°
orbit number at epoch: 60248

The dashed part of the orbit path shows where the satellite is in the earth's shadow,  

DLR